Time,TemperatureF,DewpointF,PressureIn,WindDirection,WindDirectionDegrees,WindSpeedMPH,WindSpeedGustMPH,Humidity,HourlyPrecipIn,Conditions,Clouds,dailyrainin,SoftwareType,DateUTC
2013-03-22 00:00:00,27.2,18.4,29.67,NNW,337,0.0,0.0,69,0.00,,BKN070,0.00,VWS V14.01,2013-03-22 04:00:00,
2013-03-22 00:05:00,27.1,18.0,29.66,North,352,0.0,1.4,68,0.00,,CLR,0.00,VWS V14.01,2013-03-22 04:05:00,
2013-03-22 00:10:00,27.1,17.6,29.66,North,11,5.7,5.7,67,0.00,,CLR,0.00,VWS V14.01,2013-03-22 04:10:00,
2013-03-22 00:15:00,26.9,17.8,29.67,NE,34,0.0,7.1,68,0.00,,CLR,0.00,VWS V14.01,2013-03-22 04:15:00,
2013-03-22 00:20:00,26.9,17.1,29.67,North,357,0.0,4.3,66,0.00,,CLR,0.00,VWS V14.01,2013-03-22 04:20:00,
2013-03-22 00:25:00,27.1,16.6,29.67,WNW,297,0.0,2.8,64,0.00,,CLR,0.00,VWS V14.01,2013-03-22 04:25:00,
2013-03-22 00:30:00,27.1,16.9,29.67,NNE,16,2.8,2.8,65,0.00,,CLR,0.00,VWS V14.01,2013-03-22 04:30:00,
2013-03-22 00:35:00,27.1,16.2,29.67,NW,312,0.0,0.0,63,0.00,,CLR,0.00,VWS V14.01,2013-03-22 04:35:00,
2013-03-22 00:40:00,26.9,16.4,29.67,North,6,0.0,9.9,64,0.00,,CLR,0.00,VWS V14.01,2013-03-22 04:40:00,
2013-03-22 00:45:00,26.9,16.4,29.67,North,355,0.0,1.4,64,0.00,,CLR,0.00,VWS V14.01,2013-03-22 04:45:00,
2013-03-22 00:50:00,26.9,16.0,29.68,NNW,348,0.0,11.4,63,0.00,,CLR,0.00,VWS V14.01,2013-03-22 04:50:00,
2013-03-22 00:55:00,26.9,16.0,29.68,NW,315,0.0,4.3,63,0.00,,CLR,0.00,VWS V14.01,2013-03-22 04:55:00,
2013-03-22 01:00:00,27.1,15.8,29.68,NNW,341,0.0,4.3,62,0.00,,CLR,0.00,VWS V14.01,2013-03-22 05:00:00,
2013-03-22 01:05:00,26.9,16.0,29.68,West,272,0.0,1.4,63,0.00,,CLR,0.00,VWS V14.01,2013-03-22 05:05:00,
2013-03-22 01:10:00,26.9,16.0,29.68,NW,304,2.8,2.8,63,0.00,,CLR,0.00,VWS V14.01,2013-03-22 05:10:00,
2013-03-22 01:15:00,26.9,15.6,29.68,NNE,20,0.0,9.9,62,0.00,,CLR,0.00,VWS V14.01,2013-03-22 05:15:00,
2013-03-22 01:20:00,26.9,15.6,29.68,NNE,14,1.4,4.3,62,0.00,,CLR,0.00,VWS V14.01,2013-03-22 05:20:00,
2013-03-22 01:25:00,26.9,15.6,29.69,NW,304,0.0,5.7,62,0.00,,CLR,0.00,VWS V14.01,2013-03-22 05:25:00,
2013-03-22 01:30:00,26.8,15.5,29.69,WNW,287,0.0,2.8,62,0.00,,CLR,0.00,VWS V14.01,2013-03-22 05:30:00,
2013-03-22 01:35:00,26.6,15.7,29.68,NW,314,5.7,5.7,63,0.00,,CLR,0.00,VWS V14.01,2013-03-22 05:35:00,
2013-03-22 01:40:00,26.5,15.6,29.69,North,356,1.4,5.7,63,0.00,,CLR,0.00,VWS V14.01,2013-03-22 05:40:00,
2013-03-22 01:45:00,26.5,14.9,29.69,NW,308,11.4,11.4,61,0.00,,CLR,0.00,VWS V14.01,2013-03-22 05:45:00,
2013-03-22 01:50:00,26.5,15.3,29.68,NNE,19,0.0,8.5,62,0.00,,CLR,0.00,VWS V14.01,2013-03-22 05:50:00,
2013-03-22 01:55:00,26.3,15.1,29.69,NW,325,2.8,2.8,62,0.00,,CLR,0.00,VWS V14.01,2013-03-22 05:55:00,
2013-03-22 02:00:00,26.4,14.8,29.69,NNW,343,0.0,7.1,61,0.00,,CLR,0.00,VWS V14.01,2013-03-22 06:00:00,
2013-03-22 02:05:00,26.2,15.3,29.69,WSW,253,0.0,4.3,63,0.00,,CLR,0.00,VWS V14.01,2013-03-22 06:05:00,
2013-03-22 02:10:00,25.9,15.4,29.69,ENE,64,0.0,1.4,64,0.00,,CLR,0.00,VWS V14.01,2013-03-22 06:10:00,
2013-03-22 02:15:00,25.9,15.4,29.68,WNW,291,0.0,5.7,64,0.00,,CLR,0.00,VWS V14.01,2013-03-22 06:15:00,
2013-03-22 02:20:00,25.7,15.2,29.68,NW,320,0.0,7.1,64,0.00,,CLR,0.00,VWS V14.01,2013-03-22 06:20:00,
2013-03-22 02:25:00,25.6,14.8,29.68,North,3,0.0,1.4,63,0.00,,CLR,0.00,VWS V14.01,2013-03-22 06:25:00,
2013-03-22 02:30:00,25.6,15.5,29.69,NW,310,0.0,12.8,65,0.00,,CLR,0.00,VWS V14.01,2013-03-22 06:30:00,
2013-03-22 02:35:00,25.6,15.1,29.69,NNE,33,0.0,0.0,64,0.00,,CLR,0.00,VWS V14.01,2013-03-22 06:35:00,
2013-03-22 02:40:00,25.6,15.1,29.68,NW,315,2.8,2.8,64,0.00,,CLR,0.00,VWS V14.01,2013-03-22 06:40:00,
2013-03-22 02:45:00,25.5,15.4,29.68,NNW,348,0.0,2.8,65,0.00,,CLR,0.00,VWS V14.01,2013-03-22 06:45:00,
2013-03-22 02:50:00,25.4,14.9,29.67,North,5,0.0,0.0,64,0.00,,CLR,0.00,VWS V14.01,2013-03-22 06:50:00,
2013-03-22 02:55:00,25.3,15.2,29.67,NW,310,0.0,5.7,65,0.00,,CLR,0.00,VWS V14.01,2013-03-22 06:55:00,
2013-03-22 03:00:00,25.2,15.4,29.67,NW,310,0.0,1.4,66,0.00,,CLR,0.00,VWS V14.01,2013-03-22 07:00:00,
2013-03-22 03:05:00,25.0,15.3,29.67,NW,315,2.8,4.3,66,0.00,,CLR,0.00,VWS V14.01,2013-03-22 07:05:00,
2013-03-22 03:10:00,25.0,14.9,29.67,WNW,303,0.0,1.4,65,0.00,,CLR,0.00,VWS V14.01,2013-03-22 07:10:00,
2013-03-22 03:15:00,25.0,14.9,29.67,West,266,0.0,7.1,65,0.00,,CLR,0.00,VWS V14.01,2013-03-22 07:15:00,
2013-03-22 03:20:00,25.0,14.6,29.67,NW,324,0.0,8.5,64,0.00,,CLR,0.00,VWS V14.01,2013-03-22 07:20:00,
2013-03-22 03:25:00,24.9,14.8,29.67,NW,317,0.0,0.0,65,0.00,,CLR,0.00,VWS V14.01,2013-03-22 07:25:00,
2013-03-22 03:30:00,24.7,15.0,29.67,NW,325,0.0,8.5,66,0.00,,CLR,0.00,VWS V14.01,2013-03-22 07:30:00,
2013-03-22 03:35:00,24.6,14.5,29.67,NNW,330,0.0,8.5,65,0.00,,CLR,0.00,VWS V14.01,2013-03-22 07:35:00,
2013-03-22 03:40:00,24.7,14.3,29.67,WSW,245,0.0,2.8,64,0.00,,CLR,0.00,VWS V14.01,2013-03-22 07:40:00,
2013-03-22 03:45:00,24.8,14.7,29.67,NNE,16,1.4,4.3,65,0.00,,CLR,0.00,VWS V14.01,2013-03-22 07:45:00,
2013-03-22 03:50:00,24.7,14.6,29.67,WNW,289,1.4,1.4,65,0.00,,CLR,0.00,VWS V14.01,2013-03-22 07:50:00,
2013-03-22 03:55:00,24.7,14.6,29.66,NNW,344,0.0,0.0,65,0.00,,CLR,0.00,VWS V14.01,2013-03-22 07:55:00,
2013-03-22 04:00:00,24.6,14.9,29.67,WNW,297,0.0,0.0,66,0.00,,CLR,0.00,VWS V14.01,2013-03-22 08:00:00,
2013-03-22 04:05:00,24.6,14.5,29.67,North,356,0.0,0.0,65,0.00,,CLR,0.00,VWS V14.01,2013-03-22 08:05:00,
2013-03-22 04:10:00,24.4,14.7,29.67,NW,313,0.0,2.8,66,0.00,,CLR,0.00,VWS V14.01,2013-03-22 08:10:00,
2013-03-22 04:15:00,24.4,14.3,29.67,West,269,0.0,1.4,65,0.00,,CLR,0.00,VWS V14.01,2013-03-22 08:15:00,
2013-03-22 04:20:00,24.3,14.6,29.67,WNW,289,0.0,2.8,66,0.00,,CLR,0.00,VWS V14.01,2013-03-22 08:20:00,
2013-03-22 04:25:00,24.1,14.4,29.67,WNW,292,0.0,0.0,66,0.00,,CLR,0.00,VWS V14.01,2013-03-22 08:25:00,
2013-03-22 04:30:00,24.1,14.4,29.67,NW,321,0.0,4.3,66,0.00,,CLR,0.00,VWS V14.01,2013-03-22 08:30:00,
2013-03-22 04:35:00,24.0,14.6,29.67,North,356,0.0,5.7,67,0.00,,CLR,0.00,VWS V14.01,2013-03-22 08:35:00,
2013-03-22 04:40:00,23.8,14.5,29.67,NW,305,0.0,1.4,67,0.00,,CLR,0.00,VWS V14.01,2013-03-22 08:40:00,
2013-03-22 04:45:00,23.8,14.5,29.67,NW,306,0.0,2.8,67,0.00,,CLR,0.00,VWS V14.01,2013-03-22 08:45:00,
2013-03-22 04:50:00,23.7,14.7,29.67,NW,306,0.0,0.0,68,0.00,,CLR,0.00,VWS V14.01,2013-03-22 08:50:00,
2013-03-22 04:55:00,23.5,14.2,29.67,NW,304,0.0,0.0,67,0.00,,CLR,0.00,VWS V14.01,2013-03-22 08:55:00,
2013-03-22 05:00:00,23.6,14.6,29.67,NW,304,0.0,0.0,68,0.00,,CLR,0.00,VWS V14.01,2013-03-22 09:00:00,
2013-03-22 05:05:00,23.6,14.3,29.67,NW,305,0.0,0.0,67,0.00,,CLR,0.00,VWS V14.01,2013-03-22 09:05:00,
2013-03-22 05:10:00,23.4,14.4,29.67,NW,304,0.0,0.0,68,0.00,,CLR,0.00,VWS V14.01,2013-03-22 09:10:00,
2013-03-22 05:15:00,23.3,14.6,29.67,NW,304,0.0,0.0,69,0.00,,CLR,0.00,VWS V14.01,2013-03-22 09:15:00,
2013-03-22 05:20:00,23.1,15.1,29.68,NW,304,0.0,0.0,71,0.00,,CLR,0.00,VWS V14.01,2013-03-22 09:20:00,
2013-03-22 05:25:00,23.0,15.3,29.67,NW,304,0.0,0.0,72,0.00,,CLR,0.00,VWS V14.01,2013-03-22 09:25:00,
2013-03-22 05:30:00,22.7,14.4,29.68,NW,304,0.0,0.0,70,0.00,,CLR,0.00,VWS V14.01,2013-03-22 09:30:00,
2013-03-22 05:35:00,22.5,13.9,29.68,NW,304,0.0,0.0,69,0.00,,CLR,0.00,VWS V14.01,2013-03-22 09:35:00,
2013-03-22 05:40:00,22.4,13.8,29.68,NW,304,0.0,0.0,69,0.00,,CLR,0.00,VWS V14.01,2013-03-22 09:40:00,
2013-03-22 05:45:00,22.3,13.7,29.68,NW,304,0.0,0.0,69,0.00,,CLR,0.00,VWS V14.01,2013-03-22 09:45:00,
2013-03-22 05:50:00,22.2,13.9,29.68,NW,304,0.0,0.0,70,0.00,,CLR,0.00,VWS V14.01,2013-03-22 09:50:00,
2013-03-22 05:55:00,22.2,13.9,29.69,NW,304,0.0,0.0,70,0.00,,CLR,0.00,VWS V14.01,2013-03-22 09:55:00,
2013-03-22 06:00:00,22.1,13.8,29.69,NW,304,0.0,0.0,70,0.00,,CLR,0.00,VWS V14.01,2013-03-22 10:00:00,
2013-03-22 06:05:00,22.0,14.1,29.69,NW,304,0.0,0.0,71,0.00,,CLR,0.00,VWS V14.01,2013-03-22 10:05:00,
2013-03-22 06:10:00,22.1,13.8,29.69,NW,304,0.0,0.0,70,0.00,,CLR,0.00,VWS V14.01,2013-03-22 10:10:00,
2013-03-22 06:15:00,21.9,14.0,29.69,WNW,303,0.0,0.0,71,0.00,,CLR,0.00,VWS V14.01,2013-03-22 10:15:00,
2013-03-22 06:20:00,21.9,14.3,29.69,NW,304,0.0,0.0,72,0.00,,CLR,0.00,VWS V14.01,2013-03-22 10:20:00,
2013-03-22 06:25:00,21.8,14.2,29.69,WNW,295,0.0,0.0,72,0.00,,CLR,0.00,VWS V14.01,2013-03-22 10:25:00,
2013-03-22 06:30:00,21.6,14.6,29.69,WNW,295,0.0,0.0,74,0.00,,CLR,0.00,VWS V14.01,2013-03-22 10:30:00,
2013-03-22 06:35:00,21.4,14.4,29.70,WNW,295,0.0,0.0,74,0.00,,CLR,0.00,VWS V14.01,2013-03-22 10:35:00,
2013-03-22 06:40:00,21.5,14.8,29.70,WNW,295,0.0,0.0,75,0.00,,CLR,0.00,VWS V14.01,2013-03-22 10:40:00,
2013-03-22 06:45:00,21.5,14.8,29.69,WNW,295,0.0,1.4,75,0.00,,CLR,0.00,VWS V14.01,2013-03-22 10:45:00,
2013-03-22 06:50:00,21.4,14.4,29.70,WNW,295,0.0,0.0,74,0.00,,CLR,0.00,VWS V14.01,2013-03-22 10:50:00,
2013-03-22 06:55:00,21.6,14.6,29.70,WNW,295,0.0,0.0,74,0.00,,CLR,0.00,VWS V14.01,2013-03-22 10:55:00,
2013-03-22 07:00:00,21.7,14.4,29.70,WNW,295,0.0,0.0,73,0.00,,CLR,0.00,VWS V14.01,2013-03-22 11:00:00,
2013-03-22 07:05:00,21.9,14.6,29.70,WNW,295,0.0,0.0,73,0.00,,CLR,0.00,VWS V14.01,2013-03-22 11:05:00,
2013-03-22 07:10:00,21.9,14.9,29.70,WNW,295,0.0,0.0,74,0.00,,CLR,0.00,VWS V14.01,2013-03-22 11:10:00,
2013-03-22 07:15:00,21.9,14.9,29.70,WNW,295,0.0,0.0,74,0.00,,CLR,0.00,VWS V14.01,2013-03-22 11:15:00,
2013-03-22 07:20:00,21.9,14.9,29.70,WNW,296,0.0,0.0,74,0.00,,CLR,0.00,VWS V14.01,2013-03-22 11:20:00,
2013-03-22 07:25:00,22.1,14.8,29.71,WNW,296,0.0,0.0,73,0.00,,CLR,0.00,VWS V14.01,2013-03-22 11:25:00,
2013-03-22 07:30:00,22.2,15.2,29.71,WNW,296,0.0,1.4,74,0.00,,CLR,0.00,VWS V14.01,2013-03-22 11:30:00,
2013-03-22 07:35:00,22.4,15.4,29.71,WNW,296,0.0,0.0,74,0.00,,CLR,0.00,VWS V14.01,2013-03-22 11:35:00,
2013-03-22 07:40:00,22.5,15.8,29.71,WNW,296,0.0,0.0,75,0.00,,CLR,0.00,VWS V14.01,2013-03-22 11:40:00,
2013-03-22 07:45:00,22.7,16.0,29.72,WNW,296,0.0,0.0,75,0.00,,CLR,0.00,VWS V14.01,2013-03-22 11:45:00,
2013-03-22 07:50:00,22.8,15.8,29.71,WNW,296,0.0,0.0,74,0.00,,CLR,0.00,VWS V14.01,2013-03-22 11:50:00,
2013-03-22 07:55:00,23.0,15.6,29.72,WNW,296,0.0,0.0,73,0.00,,CLR,0.00,VWS V14.01,2013-03-22 11:55:00,
2013-03-22 08:00:00,23.3,16.2,29.72,SW,236,0.0,0.0,74,0.00,,CLR,0.00,VWS V14.01,2013-03-22 12:00:00,
2013-03-22 08:05:00,23.6,16.2,29.73,NW,311,0.0,0.0,73,0.00,,CLR,0.00,VWS V14.01,2013-03-22 12:05:00,
2013-03-22 08:10:00,23.7,16.0,29.72,NW,313,0.0,0.0,72,0.00,,CLR,0.00,VWS V14.01,2013-03-22 12:10:00,
2013-03-22 08:15:00,24.0,16.3,29.72,SW,229,0.0,0.0,72,0.00,,CLR,0.00,VWS V14.01,2013-03-22 12:15:00,
2013-03-22 08:20:00,24.3,16.3,29.73,SW,223,0.0,0.0,71,0.00,,CLR,0.00,VWS V14.01,2013-03-22 12:20:00,
2013-03-22 08:25:00,24.6,16.2,29.73,South,177,0.0,0.0,70,0.00,,CLR,0.00,VWS V14.01,2013-03-22 12:25:00,
2013-03-22 08:30:00,25.1,16.7,29.73,South,175,0.0,2.8,70,0.00,,CLR,0.00,VWS V14.01,2013-03-22 12:30:00,
2013-03-22 08:35:00,25.5,16.8,29.73,SSW,201,0.0,0.0,69,0.00,,CLR,0.00,VWS V14.01,2013-03-22 12:35:00,
2013-03-22 08:40:00,26.0,18.2,29.73,SSW,201,0.0,1.4,72,0.00,,CLR,0.00,VWS V14.01,2013-03-22 12:40:00,
2013-03-22 08:45:00,26.5,18.4,29.73,SSE,164,0.0,0.0,71,0.00,,CLR,0.00,VWS V14.01,2013-03-22 12:45:00,
2013-03-22 08:50:00,26.6,18.1,29.73,South,172,0.0,0.0,70,0.00,,CLR,0.00,VWS V14.01,2013-03-22 12:50:00,
2013-03-22 08:55:00,26.9,18.4,29.73,SSE,168,0.0,0.0,70,0.00,,CLR,0.00,VWS V14.01,2013-03-22 12:55:00,
2013-03-22 09:00:00,27.2,18.0,29.73,SSE,167,0.0,4.3,68,0.00,,CLR,0.00,VWS V14.01,2013-03-22 13:00:00,
2013-03-22 09:05:00,27.5,18.7,29.73,SSW,200,1.4,2.8,69,0.00,,CLR,0.00,VWS V14.01,2013-03-22 13:05:00,
2013-03-22 09:10:00,27.8,18.6,29.73,SW,223,0.0,1.4,68,0.00,,CLR,0.00,VWS V14.01,2013-03-22 13:10:00,
2013-03-22 09:15:00,28.1,18.6,29.73,SSE,150,0.0,2.8,67,0.00,,CLR,0.00,VWS V14.01,2013-03-22 13:15:00,
2013-03-22 09:20:00,28.4,18.9,29.73,North,4,2.8,4.3,67,0.00,,CLR,0.00,VWS V14.01,2013-03-22 13:20:00,
2013-03-22 09:25:00,28.9,19.3,29.73,SW,214,9.9,9.9,67,0.00,,CLR,0.00,VWS V14.01,2013-03-22 13:25:00,
2013-03-22 09:30:00,28.8,19.2,29.73,SW,226,2.8,4.3,67,0.00,,CLR,0.00,VWS V14.01,2013-03-22 13:30:00,
2013-03-22 09:35:00,29.2,19.6,29.73,SSW,210,1.4,1.4,67,0.00,,CLR,0.00,VWS V14.01,2013-03-22 13:35:00,
2013-03-22 09:40:00,29.4,19.5,29.73,WSW,242,1.4,1.4,66,0.00,,CLR,0.00,VWS V14.01,2013-03-22 13:40:00,
2013-03-22 09:45:00,30.0,19.7,29.73,SSE,160,0.0,2.8,65,0.00,,CLR,0.00,VWS V14.01,2013-03-22 13:45:00,
2013-03-22 09:50:00,30.6,20.2,29.73,NNE,18,5.7,5.7,65,0.00,,CLR,0.00,VWS V14.01,2013-03-22 13:50:00,
2013-03-22 09:55:00,30.9,20.2,29.73,South,176,0.0,7.1,64,0.00,,CLR,0.00,VWS V14.01,2013-03-22 13:55:00,
2013-03-22 10:00:00,31.2,20.8,29.73,SSW,193,0.0,5.7,65,0.00,,CLR,0.00,VWS V14.01,2013-03-22 14:00:00,
2013-03-22 10:05:00,31.5,21.1,29.73,SSE,165,0.0,0.0,65,0.00,,CLR,0.00,VWS V14.01,2013-03-22 14:05:00,
2013-03-22 10:10:00,31.8,21.0,29.73,SSW,198,2.8,2.8,64,0.00,,CLR,0.00,VWS V14.01,2013-03-22 14:10:00,
2013-03-22 10:15:00,31.9,21.1,29.73,SSW,203,1.4,14.2,64,0.00,,CLR,0.00,VWS V14.01,2013-03-22 14:15:00,
2013-03-22 10:20:00,31.8,21.0,29.73,WSW,246,0.0,11.4,64,0.00,,CLR,0.00,VWS V14.01,2013-03-22 14:20:00,
2013-03-22 10:25:00,31.9,21.1,29.73,SSW,204,0.0,1.4,64,0.00,,CLR,0.00,VWS V14.01,2013-03-22 14:25:00,
2013-03-22 10:30:00,32.7,21.9,29.73,WSW,241,0.0,0.0,64,0.00,,CLR,0.00,VWS V14.01,2013-03-22 14:30:00,
2013-03-22 10:35:00,33.3,21.7,29.73,SSE,167,4.3,8.5,62,0.00,,CLR,0.00,VWS V14.01,2013-03-22 14:35:00,
2013-03-22 10:40:00,33.3,21.7,29.73,WSW,238,0.0,7.1,62,0.00,,CLR,0.00,VWS V14.01,2013-03-22 14:40:00,
2013-03-22 10:45:00,33.6,21.2,29.72,South,183,1.4,14.2,60,0.00,,CLR,0.00,VWS V14.01,2013-03-22 14:45:00,
2013-03-22 10:50:00,33.6,21.6,29.73,South,173,5.7,11.4,61,0.00,,CLR,0.00,VWS V14.01,2013-03-22 14:50:00,
2013-03-22 10:55:00,33.5,21.9,29.73,SW,218,2.8,9.9,62,0.00,,CLR,0.00,VWS V14.01,2013-03-22 14:55:00,
2013-03-22 11:00:00,33.9,21.9,29.73,SSW,206,4.3,17.0,61,0.00,,CLR,0.00,VWS V14.01,2013-03-22 15:00:00,
2013-03-22 11:05:00,33.9,21.1,29.73,SSW,199,1.4,9.9,59,0.00,,CLR,0.00,VWS V14.01,2013-03-22 15:05:00,
2013-03-22 11:10:00,34.3,21.9,29.73,SSW,200,1.4,9.9,60,0.00,,CLR,0.00,VWS V14.01,2013-03-22 15:10:00,
2013-03-22 11:15:00,34.2,21.4,29.73,SW,214,1.4,4.3,59,0.00,,CLR,0.00,VWS V14.01,2013-03-22 15:15:00,
2013-03-22 11:20:00,34.3,21.5,29.73,SE,137,1.4,4.3,59,0.00,,CLR,0.00,VWS V14.01,2013-03-22 15:20:00,
2013-03-22 11:25:00,34.8,22.0,29.73,SSW,211,5.7,8.5,59,0.00,,CLR,0.00,VWS V14.01,2013-03-22 15:25:00,
2013-03-22 11:30:00,35.6,22.7,29.73,West,266,8.5,8.5,59,0.00,,CLR,0.00,VWS V14.01,2013-03-22 15:30:00,
2013-03-22 11:35:00,35.6,21.5,29.73,South,187,5.7,7.1,56,0.00,,CLR,0.00,VWS V14.01,2013-03-22 15:35:00,
2013-03-22 11:40:00,35.5,21.8,29.73,WSW,240,0.0,4.3,57,0.00,,CLR,0.00,VWS V14.01,2013-03-22 15:40:00,
2013-03-22 11:45:00,35.6,21.5,29.73,South,181,1.4,14.2,56,0.00,,CLR,0.00,VWS V14.01,2013-03-22 15:45:00,
2013-03-22 11:50:00,35.6,21.0,29.72,WSW,256,8.5,12.8,55,0.00,,CLR,0.00,VWS V14.01,2013-03-22 15:50:00,
2013-03-22 11:55:00,35.7,22.4,29.72,SSW,206,0.0,8.5,58,0.00,,CLR,0.00,VWS V14.01,2013-03-22 15:55:00,
2013-03-22 12:00:00,36.0,21.8,29.73,SSW,197,2.8,8.5,56,0.00,,CLR,0.00,VWS V14.01,2013-03-22 16:00:00,
2013-03-22 12:05:00,35.4,21.3,29.73,South,187,7.1,11.4,56,0.00,,FEW041,0.00,VWS V14.01,2013-03-22 16:05:00,
2013-03-22 12:10:00,36.4,23.5,29.73,SSW,195,0.0,1.4,59,0.00,,FEW041,0.00,VWS V14.01,2013-03-22 16:10:00,
2013-03-22 12:15:00,36.8,22.6,29.72,South,173,2.8,2.8,56,0.00,,FEW041,0.00,VWS V14.01,2013-03-22 16:15:00,
2013-03-22 12:20:00,36.5,21.5,29.73,WSW,239,4.3,19.9,54,0.00,,FEW041,0.00,VWS V14.01,2013-03-22 16:20:00,
2013-03-22 12:25:00,35.9,21.8,29.72,SW,229,2.8,12.8,56,0.00,,FEW041,0.00,VWS V14.01,2013-03-22 16:25:00,
2013-03-22 12:30:00,35.6,21.9,29.72,South,182,0.0,0.0,57,0.00,,FEW041,0.00,VWS V14.01,2013-03-22 16:30:00,
2013-03-22 12:35:00,36.6,22.0,29.73,South,189,5.7,12.8,55,0.00,,FEW041,0.00,VWS V14.01,2013-03-22 16:35:00,
2013-03-22 12:40:00,36.8,21.7,29.73,SSW,202,1.4,12.8,54,0.00,,FEW041,0.00,VWS V14.01,2013-03-22 16:40:00,
2013-03-22 12:45:00,37.7,22.6,29.73,SSE,157,9.9,14.2,54,0.00,,FEW041,0.00,VWS V14.01,2013-03-22 16:45:00,
2013-03-22 12:50:00,38.0,22.0,29.73,SSE,160,14.2,14.2,52,0.00,,FEW041,0.00,VWS V14.01,2013-03-22 16:50:00,
2013-03-22 12:55:00,37.6,21.6,29.73,South,171,2.8,7.1,52,0.00,,FEW041,0.00,VWS V14.01,2013-03-22 16:55:00,
2013-03-22 13:00:00,37.0,20.6,29.73,SSE,160,0.0,8.5,51,0.00,,FEW041,0.00,VWS V14.01,2013-03-22 17:00:00,
2013-03-22 13:05:00,36.6,21.1,29.73,SSE,160,7.1,8.5,53,0.00,,BKN050,0.00,VWS V14.01,2013-03-22 17:05:00,
2013-03-22 13:10:00,36.7,20.8,29.73,East,94,7.1,17.0,52,0.00,,BKN050,0.00,VWS V14.01,2013-03-22 17:10:00,
2013-03-22 13:15:00,36.8,20.4,29.72,SSE,152,0.0,11.4,51,0.00,,BKN050,0.00,VWS V14.01,2013-03-22 17:15:00,
2013-03-22 13:20:00,37.0,20.6,29.72,SW,217,1.4,2.8,51,0.00,,BKN050,0.00,VWS V14.01,2013-03-22 17:20:00,
2013-03-22 13:25:00,37.5,20.6,29.72,SSW,212,2.8,7.1,50,0.00,,BKN050,0.00,VWS V14.01,2013-03-22 17:25:00,
2013-03-22 13:30:00,37.8,20.4,29.71,SE,124,4.3,11.4,49,0.00,,BKN050,0.00,VWS V14.01,2013-03-22 17:30:00,
2013-03-22 13:35:00,37.7,20.3,29.72,SW,235,1.4,11.4,49,0.00,,BKN050,0.00,VWS V14.01,2013-03-22 17:35:00,
2013-03-22 13:40:00,38.1,21.1,29.72,SSW,211,2.8,7.1,50,0.00,,BKN050,0.00,VWS V14.01,2013-03-22 17:40:00,
2013-03-22 13:45:00,37.8,19.4,29.72,SSW,204,9.9,11.4,47,0.00,,BKN050,0.00,VWS V14.01,2013-03-22 17:45:00,
2013-03-22 13:50:00,37.3,20.4,29.72,SSE,157,1.4,2.8,50,0.00,,BKN050,0.00,VWS V14.01,2013-03-22 17:50:00,
2013-03-22 13:55:00,37.7,20.8,29.72,SSW,200,0.0,1.4,50,0.00,,BKN050,0.00,VWS V14.01,2013-03-22 17:55:00,
2013-03-22 14:00:00,38.6,21.6,29.71,SW,218,2.8,8.5,50,0.00,,BKN050,0.00,VWS V14.01,2013-03-22 18:00:00,
2013-03-22 14:05:00,39.0,20.5,29.71,North,358,0.0,9.9,47,0.00,,SCT050,0.00,VWS V14.01,2013-03-22 18:05:00,
2013-03-22 14:10:00,38.4,20.9,29.71,South,189,0.0,4.3,49,0.00,,SCT050,0.00,VWS V14.01,2013-03-22 18:10:00,
2013-03-22 14:15:00,38.1,20.2,29.71,SSW,208,8.5,8.5,48,0.00,,SCT050,0.00,VWS V14.01,2013-03-22 18:15:00,
2013-03-22 14:20:00,37.6,19.7,29.71,South,182,0.0,11.4,48,0.00,,SCT050,0.00,VWS V14.01,2013-03-22 18:20:00,
2013-03-22 14:25:00,37.1,20.2,29.71,SW,217,1.4,5.7,50,0.00,,SCT050,0.00,VWS V14.01,2013-03-22 18:25:00,
2013-03-22 14:30:00,36.8,19.9,29.71,North,8,5.7,9.9,50,0.00,,SCT050,0.00,VWS V14.01,2013-03-22 18:30:00,
2013-03-22 14:35:00,37.1,19.7,29.71,SSE,164,2.8,14.2,49,0.00,,SCT050,0.00,VWS V14.01,2013-03-22 18:35:00,
2013-03-22 14:40:00,38.2,20.2,29.71,SW,222,0.0,14.2,48,0.00,,SCT050,0.00,VWS V14.01,2013-03-22 18:40:00,
2013-03-22 14:45:00,38.5,21.0,29.71,SW,224,0.0,4.3,49,0.00,,SCT050,0.00,VWS V14.01,2013-03-22 18:45:00,
2013-03-22 14:50:00,38.6,21.6,29.71,SSE,152,4.3,12.8,50,0.00,,SCT050,0.00,VWS V14.01,2013-03-22 18:50:00,
2013-03-22 14:55:00,38.4,20.9,29.70,South,185,8.5,14.2,49,0.00,,SCT050,0.00,VWS V14.01,2013-03-22 18:55:00,
2013-03-22 15:00:00,37.7,20.8,29.71,SSW,198,5.7,15.6,50,0.00,,SCT050,0.00,VWS V14.01,2013-03-22 19:00:00,
2013-03-22 15:05:00,37.0,20.1,29.71,South,174,0.0,1.4,50,0.00,,BKN065,0.00,VWS V14.01,2013-03-22 19:05:00,
2013-03-22 15:10:00,37.4,20.5,29.71,SE,129,8.5,9.9,50,0.00,,BKN065,0.00,VWS V14.01,2013-03-22 19:10:00,
2013-03-22 15:15:00,37.8,20.4,29.70,SW,235,1.4,15.6,49,0.00,,BKN065,0.00,VWS V14.01,2013-03-22 19:15:00,
2013-03-22 15:20:00,38.4,21.4,29.71,ESE,104,4.3,4.3,50,0.00,,BKN065,0.00,VWS V14.01,2013-03-22 19:20:00,
2013-03-22 15:25:00,38.6,20.6,29.71,SSW,198,2.8,15.6,48,0.00,,BKN065,0.00,VWS V14.01,2013-03-22 19:25:00,
2013-03-22 15:30:00,38.3,20.4,29.71,SSE,158,4.3,17.0,48,0.00,,BKN065,0.00,VWS V14.01,2013-03-22 19:30:00,
2013-03-22 15:35:00,37.6,20.7,29.71,SE,132,0.0,1.4,50,0.00,,BKN065,0.00,VWS V14.01,2013-03-22 19:35:00,
2013-03-22 15:40:00,37.6,20.7,29.71,SSE,165,1.4,5.7,50,0.00,,BKN065,0.00,VWS V14.01,2013-03-22 19:40:00,
2013-03-22 15:45:00,37.6,20.2,29.71,South,189,1.4,8.5,49,0.00,,BKN065,0.00,VWS V14.01,2013-03-22 19:45:00,
2013-03-22 15:50:00,37.4,20.5,29.71,South,185,1.4,4.3,50,0.00,,BKN065,0.00,VWS V14.01,2013-03-22 19:50:00,
2013-03-22 15:55:00,37.3,19.9,29.72,SSE,161,4.3,14.2,49,0.00,,BKN065,0.00,VWS V14.01,2013-03-22 19:55:00,
2013-03-22 16:00:00,37.3,20.9,29.72,SE,146,2.8,11.4,51,0.00,,BKN065,0.00,VWS V14.01,2013-03-22 20:00:00,
2013-03-22 16:05:00,37.4,20.9,29.71,SSE,166,12.8,15.6,51,0.00,,SCT080,0.00,VWS V14.01,2013-03-22 20:05:00,
2013-03-22 16:10:00,37.5,21.0,29.72,SSE,163,0.0,14.2,51,0.00,,SCT080,0.00,VWS V14.01,2013-03-22 20:10:00,
2013-03-22 16:14:00,37.5,20.6,29.71,South,175,2.8,11.4,50,0.00,,SCT080,0.00,VWS V14.01,2013-03-22 20:14:00,
2013-03-22 16:20:00,37.7,20.8,29.72,SSE,159,4.3,12.8,50,0.00,,SCT080,0.00,VWS V14.01,2013-03-22 20:20:00,
2013-03-22 16:25:00,38.0,21.0,29.72,SSE,164,2.8,5.7,50,0.00,,SCT080,0.00,VWS V14.01,2013-03-22 20:25:00,
2013-03-22 16:29:00,37.7,20.8,29.72,SW,228,4.3,9.9,50,0.00,,SCT080,0.00,VWS V14.01,2013-03-22 20:29:00,
2013-03-22 16:34:00,37.0,20.1,29.72,South,170,0.0,15.6,50,0.00,,SCT080,0.00,VWS V14.01,2013-03-22 20:34:00,
2013-03-22 16:39:00,36.9,20.9,29.72,SSW,195,0.0,7.1,52,0.00,,SCT080,0.00,VWS V14.01,2013-03-22 20:39:00,
2013-03-22 16:44:00,36.7,21.2,29.72,SSE,160,2.8,8.5,53,0.00,,SCT080,0.00,VWS V14.01,2013-03-22 20:44:00,
2013-03-22 16:49:00,36.4,20.5,29.72,SSE,167,2.8,14.2,52,0.00,,SCT080,0.00,VWS V14.01,2013-03-22 20:49:00,
2013-03-22 16:54:00,36.3,20.8,29.72,SSW,192,7.1,14.2,53,0.00,,SCT080,0.00,VWS V14.01,2013-03-22 20:54:00,
2013-03-22 16:59:00,36.6,21.1,29.72,SSE,153,0.0,2.8,53,0.00,,SCT080,0.00,VWS V14.01,2013-03-22 20:59:00,
2013-03-22 17:04:00,36.9,20.9,29.72,SW,217,0.0,14.2,52,0.00,,SCT080,0.00,VWS V14.01,2013-03-22 21:04:00,
2013-03-22 18:00:00,36.6,21.1,29.73,SE,126,1.4,1.4,53,0.00,,SCT070,0.00,VWS V14.01,2013-03-22 22:00:00,
2013-03-22 18:05:00,36.4,21.4,29.74,SSE,167,4.3,5.7,54,0.00,,BKN070,0.00,VWS V14.01,2013-03-22 22:05:00,
2013-03-22 18:10:00,36.2,21.2,29.74,SSE,162,0.0,9.9,54,0.00,,BKN070,0.00,VWS V14.01,2013-03-22 22:10:00,
2013-03-22 18:15:00,35.9,21.3,29.74,SSE,148,0.0,9.9,55,0.00,,BKN070,0.00,VWS V14.01,2013-03-22 22:15:00,
2013-03-22 18:20:00,35.9,21.3,29.74,SSW,211,0.0,7.1,55,0.00,,BKN070,0.00,VWS V14.01,2013-03-22 22:20:00,
2013-03-22 18:25:00,35.9,21.8,29.74,South,172,1.4,14.2,56,0.00,,BKN070,0.00,VWS V14.01,2013-03-22 22:25:00,
2013-03-22 18:30:00,35.8,22.1,29.75,SE,139,0.0,8.5,57,0.00,,BKN070,0.00,VWS V14.01,2013-03-22 22:30:00,
2013-03-22 18:35:00,35.5,22.2,29.74,South,173,0.0,2.8,58,0.00,,BKN070,0.00,VWS V14.01,2013-03-22 22:35:00,
2013-03-22 18:40:00,35.6,22.3,29.75,SSW,200,0.0,9.9,58,0.00,,BKN070,0.00,VWS V14.01,2013-03-22 22:40:00,
2013-03-22 18:45:00,35.2,22.3,29.75,SE,126,8.5,8.5,59,0.00,,BKN070,0.00,VWS V14.01,2013-03-22 22:45:00,
2013-03-22 18:50:00,35.0,22.1,29.75,SE,144,0.0,8.5,59,0.00,,BKN070,0.00,VWS V14.01,2013-03-22 22:50:00,
2013-03-22 18:55:00,35.1,22.2,29.75,SE,146,0.0,8.5,59,0.00,,BKN070,0.00,VWS V14.01,2013-03-22 22:55:00,
2013-03-22 19:00:00,34.9,22.0,29.76,South,184,0.0,2.8,59,0.00,,BKN070,0.00,VWS V14.01,2013-03-22 23:00:00,
2013-03-22 19:05:00,34.8,22.3,29.76,South,185,0.0,5.7,60,0.00,,SCT070,0.00,VWS V14.01,2013-03-22 23:05:00,
2013-03-22 19:10:00,34.8,22.3,29.76,SSE,159,0.0,17.0,60,0.00,,SCT070,0.00,VWS V14.01,2013-03-22 23:10:00,
2013-03-22 19:15:00,34.9,22.0,29.76,SSE,155,0.0,8.5,59,0.00,,SCT070,0.00,VWS V14.01,2013-03-22 23:15:00,
2013-03-22 19:20:00,34.9,22.0,29.77,South,177,1.4,8.5,59,0.00,,SCT070,0.00,VWS V14.01,2013-03-22 23:20:00,
2013-03-22 19:25:00,34.9,22.0,29.76,SSW,194,0.0,0.0,59,0.00,,SCT070,0.00,VWS V14.01,2013-03-22 23:25:00,
2013-03-22 19:30:00,34.8,22.0,29.77,SW,217,12.8,12.8,59,0.00,,SCT070,0.00,VWS V14.01,2013-03-22 23:30:00,
2013-03-22 19:35:00,34.6,22.2,29.77,SW,217,1.4,5.7,60,0.00,,SCT070,0.00,VWS V14.01,2013-03-22 23:35:00,
2013-03-22 19:40:00,34.5,22.1,29.77,WSW,258,5.7,7.1,60,0.00,,SCT070,0.00,VWS V14.01,2013-03-22 23:40:00,
2013-03-22 19:45:00,34.5,22.1,29.77,WSW,240,0.0,5.7,60,0.00,,SCT070,0.00,VWS V14.01,2013-03-22 23:45:00,
2013-03-22 19:50:00,34.4,22.0,29.78,WSW,251,0.0,0.0,60,0.00,,SCT070,0.00,VWS V14.01,2013-03-22 23:50:00,
2013-03-22 19:55:00,34.2,22.2,29.77,NW,317,1.4,9.9,61,0.00,,SCT070,0.00,VWS V14.01,2013-03-22 23:55:00,
2013-03-22 20:00:00,34.2,22.2,29.78,West,265,9.9,12.8,61,0.00,,SCT070,0.00,VWS V14.01,2013-03-23 00:00:00,
2013-03-22 20:05:00,34.2,22.2,29.78,West,275,2.8,5.7,61,0.00,,SCT060,0.00,VWS V14.01,2013-03-23 00:05:00,
2013-03-22 20:10:00,34.0,22.0,29.78,South,175,0.0,1.4,61,0.00,,SCT060,0.00,VWS V14.01,2013-03-23 00:10:00,
2013-03-22 20:15:00,33.9,21.9,29.78,WSW,253,0.0,7.1,61,0.00,,SCT060,0.00,VWS V14.01,2013-03-23 00:15:00,
2013-03-22 20:20:00,33.8,22.2,29.78,WNW,293,7.1,11.4,62,0.00,,SCT060,0.00,VWS V14.01,2013-03-23 00:20:00,
2013-03-22 20:25:00,33.8,22.2,29.78,South,171,1.4,4.3,62,0.00,,SCT060,0.00,VWS V14.01,2013-03-23 00:25:00,
2013-03-22 20:30:00,33.8,22.2,29.78,SW,217,1.4,8.5,62,0.00,,SCT060,0.00,VWS V14.01,2013-03-23 00:30:00,
2013-03-22 20:35:00,33.8,22.2,29.79,SE,143,2.8,2.8,62,0.00,,SCT060,0.00,VWS V14.01,2013-03-23 00:35:00,
2013-03-22 20:40:00,33.8,22.2,29.78,South,187,0.0,9.9,62,0.00,,SCT060,0.00,VWS V14.01,2013-03-23 00:40:00,
2013-03-22 20:45:00,33.8,22.2,29.79,South,170,4.3,11.4,62,0.00,,SCT060,0.00,VWS V14.01,2013-03-23 00:45:00,
2013-03-22 20:50:00,33.8,22.5,29.79,SE,145,0.0,1.4,63,0.00,,SCT060,0.00,VWS V14.01,2013-03-23 00:50:00,
2013-03-22 20:55:00,33.8,22.9,29.79,SW,226,0.0,2.8,64,0.00,,SCT060,0.00,VWS V14.01,2013-03-23 00:55:00,
2013-03-22 21:00:00,33.7,22.8,29.79,SW,217,5.7,5.7,64,0.00,,SCT060,0.00,VWS V14.01,2013-03-23 01:00:00,
2013-03-22 21:05:00,33.6,22.7,29.79,SW,234,1.4,17.0,64,0.00,,BKN044,0.00,VWS V14.01,2013-03-23 01:05:00,
2013-03-22 21:10:00,33.6,22.7,29.80,SW,217,0.0,14.2,64,0.00,,BKN044,0.00,VWS V14.01,2013-03-23 01:10:00,
2013-03-22 21:15:00,33.5,22.6,29.80,SSE,167,0.0,7.1,64,0.00,,BKN044,0.00,VWS V14.01,2013-03-23 01:15:00,
2013-03-22 21:20:00,33.4,22.9,29.80,South,185,1.4,2.8,65,0.00,,BKN044,0.00,VWS V14.01,2013-03-23 01:20:00,
2013-03-22 21:25:00,33.1,23.0,29.80,SW,232,0.0,7.1,66,0.00,,BKN044,0.00,VWS V14.01,2013-03-23 01:25:00,
2013-03-22 21:30:00,32.9,22.8,29.81,SSW,201,0.0,1.4,66,0.00,,BKN044,0.00,VWS V14.01,2013-03-23 01:30:00,
2013-03-22 21:35:00,32.8,22.7,29.80,SSW,211,5.7,7.1,66,0.00,,BKN044,0.00,VWS V14.01,2013-03-23 01:35:00,
2013-03-22 21:40:00,32.7,23.0,29.81,WNW,287,0.0,9.9,67,0.00,,BKN044,0.00,VWS V14.01,2013-03-23 01:40:00,
2013-03-22 21:45:00,32.7,23.0,29.81,NW,311,0.0,0.0,67,0.00,,BKN044,0.00,VWS V14.01,2013-03-23 01:45:00,
2013-03-22 21:50:00,32.5,22.8,29.81,WNW,292,4.3,4.3,67,0.00,,BKN044,0.00,VWS V14.01,2013-03-23 01:50:00,
2013-03-22 21:55:00,32.4,22.7,29.81,West,260,0.0,7.1,67,0.00,,BKN044,0.00,VWS V14.01,2013-03-23 01:55:00,
2013-03-22 22:00:00,32.3,22.6,29.80,West,259,0.0,2.8,67,0.00,,BKN044,0.00,VWS V14.01,2013-03-23 02:00:00,
2013-03-22 22:05:00,32.2,22.5,29.81,WNW,303,1.4,8.5,67,0.00,,BKN044,0.00,VWS V14.01,2013-03-23 02:05:00,
2013-03-22 22:10:00,32.1,22.8,29.80,West,278,1.4,7.1,68,0.00,,BKN044,0.00,VWS V14.01,2013-03-23 02:10:00,
2013-03-22 22:15:00,32.0,22.6,29.81,NW,309,0.0,1.4,68,0.00,,BKN044,0.00,VWS V14.01,2013-03-23 02:15:00,
2013-03-22 22:20:00,31.9,22.5,29.80,WNW,282,0.0,2.8,68,0.00,,BKN044,0.00,VWS V14.01,2013-03-23 02:20:00,
2013-03-22 22:25:00,31.9,22.5,29.81,West,261,0.0,1.4,68,0.00,,BKN044,0.00,VWS V14.01,2013-03-23 02:25:00,
2013-03-22 22:35:00,31.8,23.1,29.80,SW,215,0.0,0.0,70,0.00,,BKN044,0.00,VWS V14.01,2013-03-23 02:35:00,
2013-03-22 22:40:00,31.8,22.8,29.80,West,267,0.0,8.5,69,0.00,,BKN044,0.00,VWS V14.01,2013-03-23 02:40:00,
2013-03-22 22:45:00,31.5,22.5,29.81,NW,308,0.0,4.3,69,0.00,,BKN044,0.00,VWS V14.01,2013-03-23 02:45:00,
2013-03-22 22:50:00,31.5,22.9,29.80,WNW,285,0.0,8.5,70,0.00,,BKN044,0.00,VWS V14.01,2013-03-23 02:50:00,
2013-03-22 22:55:00,31.4,22.8,29.80,West,264,1.4,5.7,70,0.00,,BKN044,0.00,VWS V14.01,2013-03-23 02:55:00,
2013-03-22 23:00:00,31.4,22.8,29.80,WNW,282,0.0,1.4,70,0.00,,BKN044,0.00,VWS V14.01,2013-03-23 03:00:00,
2013-03-22 23:05:00,31.2,22.6,29.81,SW,219,2.8,2.8,70,0.00,,CLR,0.00,VWS V14.01,2013-03-23 03:05:00,
2013-03-22 23:10:00,31.2,22.6,29.80,WSW,245,0.0,0.0,70,0.00,,CLR,0.00,VWS V14.01,2013-03-23 03:10:00,
2013-03-22 23:15:00,31.1,22.5,29.80,WNW,295,0.0,7.1,70,0.00,,CLR,0.00,VWS V14.01,2013-03-23 03:15:00,
2013-03-22 23:20:00,31.1,22.8,29.80,WNW,295,0.0,14.2,71,0.00,,CLR,0.00,VWS V14.01,2013-03-23 03:20:00,
2013-03-22 23:25:00,30.9,22.3,29.80,NW,317,0.0,4.3,70,0.00,,CLR,0.00,VWS V14.01,2013-03-23 03:25:00,
2013-03-22 23:30:00,30.8,22.5,29.80,NW,307,1.4,1.4,71,0.00,,CLR,0.00,VWS V14.01,2013-03-23 03:30:00,
2013-03-22 23:35:00,30.6,22.3,29.80,WNW,295,0.0,1.4,71,0.00,,CLR,0.00,VWS V14.01,2013-03-23 03:35:00,
2013-03-22 23:40:00,30.5,22.2,29.81,West,269,0.0,0.0,71,0.00,,CLR,0.00,VWS V14.01,2013-03-23 03:40:00,
2013-03-22 23:44:00,30.3,22.4,29.81,WNW,290,0.0,2.8,72,0.00,,CLR,0.00,VWS V14.01,2013-03-23 03:44:00,
2013-03-22 23:49:00,30.3,22.4,29.81,NW,315,0.0,0.0,72,0.00,,CLR,0.00,VWS V14.01,2013-03-23 03:49:00,
2013-03-22 23:54:00,30.1,22.2,29.81,West,272,0.0,1.4,72,0.00,,CLR,0.00,VWS V14.01,2013-03-23 03:54:00,
2013-03-22 23:59:00,29.9,22.0,29.81,WNW,293,0.0,1.4,72,0.00,,CLR,0.00,VWS V14.01,2013-03-23 03:59:00,